User: anonymous   Login
Location: *
(58.7167°N, 26.1833°E)
Time: 04:49:07
(UTC+00:00)
Language:

SJ 16-02 - Orbit

View from above orbital plane
View from above orbital plane
View from above satellite
View from above satellite

Ground track
Ground track

The orbit data is extracted from the following two-line orbital elements,

1 41634U 16043A   19296.76462384  .00000096  00000-0  14191-4 0  9994
2 41634  75.0032 157.0579 0007708 155.3631 204.7888 14.85613407179943
Epoch (UTC): 23 October 2019 18:21:03
Eccentricity: 0.0007708
inclination: 75.0032°
perigee height: 606 km
apogee height: 617 km
right ascension of ascending node: 157.0579°
argument of perigee: 155.3631°
revolutions per day: 14.85613407
mean anomaly at epoch: 204.7888°
orbit number at epoch: 17994

The dashed part of the orbit path shows where the satellite is in the earth's shadow,  

DLR